Theta_e
325 323 323 323 323 321 322 322 322 322 322 321 320 320 319 320 320 320 319 318 319 318 318 318 318 319 319 318 318 319 319 319 320 320 320 319 320 320 320 319 318 318 318 318 319 320 319 319 319 321 324 324 325 325 326 326 327 328 329 329 329 330 328 325 320 320 327 332 330 330 333 333 331 333 334 337 337 332 328 336 336 334 331 330 325
323 322 322 321 321 321 321 321 320 320 320 320 319 318 318 318 319 319 318 317 318 317 317 317 317 317 317 317 317 318 318 318 319 319 318 318 318 319 318 317 317 317 317 316 317 318 318 318 319 320 322 321 322 322 323 324 325 327 327 329 328 326 330 325 324 322 322 327 328 331 331 332 328 331 331 333 335 334 330 332 335 335 331 329 328
322 322 321 321 320 320 320 319 319 318 318 317 317 316 316 317 317 317 316 316 316 316 316 316 316 316 316 316 317 317 317 317 318 318 317 317 316 317 317 316 316 316 315 315 315 316 316 316 317 318 319 318 319 320 322 323 324 324 325 327 326 328 328 327 327 323 322 323 327 326 327 330 330 328 330 332 334 333 332 332 331 331 330 329 328
320 320 320 320 320 319 318 317 317 317 316 315 315 316 315 316 316 316 315 316 315 316 315 315 315 316 315 316 316 316 316 316 316 316 316 316 316 316 316 316 316 316 315 314 314 315 315 315 315 315 316 315 316 316 317 317 317 319 321 323 324 326 330 326 324 322 324 321 326 325 328 329 327 328 334 337 334 331 332 332 333 331 330 329 329
319 319 318 318 318 317 317 317 315 315 314 314 315 315 315 315 315 315 315 315 315 315 315 315 315 315 316 315 315 314 314 313 313 313 313 315 315 316 316 316 316 316 315 314 314 313 313 313 313 314 313 312 312 311 312 313 315 316 318 320 322 323 325 326 328 326 324 324 326 326 329 330 330 330 330 331 334 332 331 330 331 330 330 331 330
319 318 317 317 316 316 316 316 314 314 314 314 314 314 314 315 314 314 314 314 314 314 314 314 315 315 315 315 314 312 312 311 310 309 310 312 314 315 316 316 316 315 314 313 312 313 313 313 313 313 311 310 308 308 309 309 311 313 315 317 319 320 321 323 324 326 325 323 323 323 327 326 326 329 329 332 330 328 329 330 333 332 331 331 330
316 316 316 316 315 315 315 314 313 313 313 313 314 313 313 314 313 313 314 314 314 314 314 314 315 315 315 314 312 311 310 309 307 307 308 310 311 314 314 314 314 314 314 314 315 315 315 314 314 312 311 310 308 307 307 308 310 311 313 315 316 317 318 319 321 321 321 321 322 323 322 325 328 324 327 332 331 328 324 326 329 332 332 329 326
317 314 314 314 313 313 313 313 313 313 313 313 313 313 313 313 313 313 313 314 313 314 314 314 315 315 314 313 312 310 309 307 305 305 306 309 310 313 313 313 312 313 313 313 314 314 314 314 313 313 311 310 309 308 308 307 307 309 313 314 314 313 313 314 315 317 318 319 319 320 321 323 324 326 329 331 328 326 327 326 325 326 327 328 328
315 314 313 313 312 312 312 312 312 312 312 312 312 312 313 313 313 313 313 313 313 314 314 314 314 313 313 312 311 310 308 305 304 301 302 306 307 311 312 312 312 311 312 312 313 313 313 314 313 312 312 310 307 306 305 305 307 308 312 314 313 312 311 311 311 312 313 314 315 317 317 317 319 321 322 321 320 321 327 332 327 328 327 325 326
314 314 313 312 313 312 312 312 311 311 311 311 312 312 312 313 313 312 312 313 313 313 313 313 313 312 311 310 310 309 307 305 299 295 295 300 305 311 312 311 311 311 311 311 311 312 312 313 313 312 310 308 306 302 300 301 303 307 309 313 313 311 310 309 308 308 308 309 310 311 312 313 315 317 316 318 320 318 318 326 325 326 326 324 325
315 313 312 312 312 312 311 311 312 311 311 312 312 312 311 312 312 312 312 312 312 312 312 311 311 311 310 309 308 307 306 302 293 292 293 294 301 310 311 310 310 310 310 309 309 309 310 311 312 312 310 307 306 301 300 299 299 299 300 303 307 310 308 307 306 306 305 305 307 308 308 308 310 310 310 311 311 310 311 314 318 324 322 320 318
312 312 312 312 312 311 311 311 311 311 311 311 311 312 312 311 311 311 311 311 311 311 311 310 310 311 310 309 307 306 306 296 291 293 293 292 295 304 311 310 309 309 309 308 308 307 307 308 309 310 309 307 306 304 302 300 300 299 300 296 298 297 300 306 305 304 304 303 304 305 305 305 304 305 305 305 304 305 307 310 313 317 319 320 320
312 312 313 313 312 312 311 311 310 310 310 311 311 311 311 310 310 310 310 311 311 309 309 309 309 310 310 308 307 305 304 295 292 292 293 292 292 299 311 309 308 308 307 307 307 306 306 306 306 307 307 306 305 302 302 304 303 302 303 298 297 296 297 297 299 306 306 304 304 303 304 303 302 303 304 304 304 302 304 305 309 312 317 320 320
311 311 312 312 312 311 311 310 310 310 311 311 311 310 310 309 310 310 310 311 310 309 309 309 309 308 308 308 307 305 302 294 292 292 293 292 292 295 311 309 308 308 307 306 306 305 304 304 304 304 305 305 302 300 300 303 305 309 311 311 311 310 298 301 300 299 303 306 304 303 304 305 303 304 305 305 303 302 302 302 305 307 310 314 321
311 311 311 311 311 311 311 310 310 310 310 310 310 309 309 309 309 310 310 309 309 308 308 308 308 308 308 307 306 305 302 292 291 291 292 292 292 298 310 308 307 306 306 306 305 305 303 303 304 303 303 302 300 297 298 300 305 309 309 309 309 309 310 308 308 308 308 308 306 306 305 305 305 305 306 306 305 304 304 303 304 306 309 315 318
310 311 310 310 311 310 310 310 309 309 309 309 308 308 308 308 308 309 309 308 308 308 308 308 307 307 307 307 305 303 301 291 291 292 292 292 293 309 308 308 306 306 305 305 305 304 303 302 302 302 302 301 298 292 294 298 306 306 305 306 307 308 308 308 300 301 307 308 308 307 307 306 299 302 302 303 304 304 305 307 309 311 312 314 315
309 309 310 310 310 310 310 309 309 308 308 308 308 308 308 308 308 308 307 308 307 307 307 307 307 306 306 306 304 302 302 295 291 291 292 291 297 309 308 307 306 305 305 305 304 304 302 301 301 301 301 300 296 291 291 295 306 303 304 304 304 305 305 307 303 300 298 297 296 296 296 295 296 297 297 296 299 302 305 304 303 304 304 307 314
309 309 309 309 309 310 310 309 308 308 308 307 307 308 308 308 308 308 307 307 307 307 306 305 305 305 305 305 304 302 301 297 291 292 292 292 296 307 306 306 305 305 304 304 304 304 303 301 301 300 300 300 293 291 291 298 303 302 302 301 301 302 303 304 306 305 300 300 299 298 297 297 297 298 298 297 297 301 304 300 302 303 302 305 307
308 308 308 308 309 309 309 308 307 307 307 307 308 307 307 307 307 308 307 307 307 307 306 305 304 304 303 304 303 303 301 299 293 291 292 292 297 307 305 304 303 303 303 303 304 304 304 302 299 298 297 296 290 291 292 297 302 301 300 300 299 300 301 304 303 302 303 303 304 304 304 303 305 304 303 298 298 302 304 303 303 302 302 303 306
307 307 307 307 307 306 307 307 307 306 306 306 306 306 307 307 308 308 307 306 305 306 306 306 305 304 304 302 302 303 302 300 297 291 292 293 292 302 306 303 302 302 303 302 302 302 302 302 300 294 291 291 291 290 291 292 301 301 301 300 299 298 301 303 303 302 302 302 303 303 303 303 303 303 303 303 303 303 303 304 303 303 302 303 305
305 305 305 304 304 304 305 305 305 305 305 306 306 307 307 307 307 307 306 306 306 306 306 306 305 305 305 304 302 301 302 301 299 291 292 292 292 295 304 302 302 303 301 301 301 300 301 300 301 296 292 291 291 290 291 292 293 302 301 300 300 298 298 302 303 300 303 302 302 302 302 301 301 301 301 301 301 301 302 303 303 303 302 302 302
305 304 303 303 304 304 304 305 306 306 307 307 306 306 307 307 307 306 306 306 306 305 305 304 304 304 305 305 304 302 300 299 301 295 292 292 292 292 299 302 299 303 301 300 300 300 300 300 300 297 292 291 290 291 291 292 292 302 301 292 292 293 303 302 302 301 301 301 300 300 299 299 299 299 299 299 299 300 301 302 303 303 303 303 302
306 306 305 305 305 305 306 306 307 307 307 307 306 305 305 306 306 306 306 305 305 304 304 304 304 303 303 303 304 304 304 301 296 299 293 292 291 292 291 296 293 303 300 299 299 299 300 300 300 296 292 291 291 291 292 292 296 300 291 291 293 293 298 302 301 300 299 299 299 298 298 298 297 297 297 297 298 299 299 301 303 303 302 303 303
307 306 306 305 305 306 306 307 307 307 307 307 306 306 306 306 306 306 306 304 304 303 303 303 303 302 301 301 302 302 304 304 297 295 297 291 293 292 292 291 292 299 301 300 299 299 299 300 299 292 291 291 291 291 293 293 297 291 291 292 294 296 301 301 302 301 298 297 297 297 297 298 297 296 296 297 298 298 299 301 302 302 302 301 302
305 305 305 305 306 306 306 306 306 306 306 305 305 304 305 305 303 304 304 304 303 302 302 303 302 302 301 300 300 301 302 301 303 299 293 293 293 293 292 291 292 291 301 302 302 301 296 292 291 291 292 292 293 294 295 295 293 293 292 294 299 301 301 300 299 299 299 298 297 297 297 297 297 297 298 298 298 299 298 300 301 301 301 301 300
305 305 305 305 305 305 305 305 305 306 306 306 305 305 304 303 303 303 302 302 302 302 301 302 301 302 301 300 299 299 300 300 300 301 299 298 296 292 292 291 293 293 295 299 294 291 289 292 293 294 295 297 301 300 300 301 293 293 294 297 302 300 299 299 299 298 297 298 297 297 298 298 298 298 298 298 297 296 296 297 297 298 298 297 296
304 304 304 304 304 304 304 303 304 305 305 304 304 305 304 305 305 302 302 301 301 301 302 302 302 301 300 300 299 298 298 298 298 298 298 299 300 300 299 300 297 296 300 302 299 300 300 299 298 294 295 293 294 295 296 296 299 299 300 300 300 300 300 300 299 298 298 297 297 297 298 298 299 298 296 296 295 295 296 295 295 295 297 296 294
303 303 303 304 303 303 302 295 300 303 303 303 301 301 302 303 302 300 300 301 302 301 301 299 299 301 300 300 299 298 297 296 296 296 296 296 297 298 299 299 300 300 299 300 300 301 301 296 297 301 301 300 300 300 300 300 299 298 299 299 299 299 300 298 298 299 299 299 298 298 298 298 296 296 297 296 295 295 296 295 294 293 294 294 292
303 304 304 303 302 302 303 304 303 303 302 301 299 298 300 300 300 298 298 298 297 300 303 301 299 299 299 299 299 298 296 295 296 291 293 289 291 296 297 297 298 299 297 292 298 301 301 299 299 298 298 298 298 298 298 298 298 299 299 299 299 299 299 299 298 298 298 298 297 297 297 297 296 297 296 296 295 295 295 295 294 293 293 293 290
303 302 302 302 302 302 302 301 300 300 300 299 298 297 289 289 294 298 297 291 288 288 291 296 297 300 297 296 298 296 295 296 289 287 289 289 289 289 289 289 289 294 292 290 295 299 299 297 297 296 298 297 296 296 296 296 296 296 297 294 298 298 296 297 298 297 297 297 297 296 297 296 297 296 296 296 296 296 295 293 294 294 292 291 290
302 301 302 302 301 302 301 300 299 298 298 297 296 295 295 296 289 287 289 289 289 288 288 288 288 288 298 298 296 288 289 288 287 289 288 289 288 289 289 289 289 290 290 292 296 295 295 295 295 296 297 297 295 296 296 295 294 295 296 296 298 295 294 297 297 296 296 295 295 295 295 297 296 297 296 295 296 296 296 295 295 294 293 291 290
301 301 302 302 301 302 301 299 299 298 297 297 296 296 295 294 295 290 287 289 289 289 288 288 289 289 288 291 296 299 292 289 288 288 289 288 289 288 289 289 289 290 290 290 294 295 296 295 295 294 296 296 295 295 296 296 296 296 296 294 295 296 296 295 296 297 296 296 295 294 295 296 297 296 296 295 294 296 296 295 295 294 293 293 292
303 302 302 301 301 300 299 299 299 299 299 298 298 297 296 294 293 294 295 289 288 289 289 289 288 289 289 289 288 288 289 289 288 289 289 289 288 289 288 289 290 290 290 294 295 294 295 297 296 297 296 295 297 297 297 298 297 296 296 295 294 296 297 298 298 297 295 295 294 294 295 295 296 295 295 295 295 294 294 295 296 295 295 293 292
303 302 302 302 301 301 300 301 301 301 301 300 300 299 298 297 296 295 294 294 294 293 290 289 289 288 288 288 289 289 289 288 289 288 289 289 289 289 289 293 291 290 289 297 295 295 296 296 296 296 296 296 296 297 297 297 296 296 297 296 296 297 297 298 297 296 295 295 295 294 294 295 295 296 296 296 296 296 294 295 295 294 294 294 293
303 296 293 296 301 301 301 301 302 302 302 302 300 299 299 298 299 298 298 297 297 296 296 296 291 290 295 291 290 287 289 289 289 289 288 289 289 289 289 299 295 297 301 299 298 296 295 296 295 296 296 295 295 296 296 297 296 296 296 296 296 296 296 295 295 296 295 295 294 294 294 294 295 294 295 295 295 295 295 295 295 296 295 294 294
302 301 302 300 301 301 301 302 302 301 301 301 302 300 299 299 299 299 298 298 298 297 297 298 298 291 289 292 289 289 288 288 288 289 289 288 289 289 295 295 295 296 295 297 297 296 296 296 296 296 296 296 297 295 296 295 295 296 296 296 293 294 295 294 293 294 294 294 294 294 294 294 294 294 295 295 296 295 295 294 295 295 295 295 294
301 301 302 302 302 302 302 302 302 302 297 297 298 299 299 298 298 299 299 300 300 299 299 300 300 298 294 296 293 288 288 289 289 289 289 289 289 293 299 297 296 297 297 296 296 296 297 297 296 297 297 296 296 296 296 296 295 295 294 296 295 294 294 294 294 293 294 294 294 293 293 293 294 293 293 293 293 294 295 295 294 294 294 293 292
301 302 302 302 302 302 302 302 299 293 298 299 300 300 298 300 300 299 297 298 299 297 298 298 296 300 299 299 299 298 298 290 289 289 290 291 293 296 298 298 297 296 296 297 297 298 297 297 298 297 297 297 296 296 296 296 295 295 294 294 293 294 292 294 292 293 292 294 293 293 293 293 293 293 293 293 292 292 293 293 294 294 294 293 293
303 294 291 293 295 302 302 299 298 300 299 299 299 299 296 297 298 297 297 297 298 299 298 301 301 300 299 300 301 302 298 299 298 295 295 296 296 299 299 298 299 297 297 297 297 297 298 297 297 297 297 297 297 296 296 295 295 293 294 293 292 293 293 293 293 292 293 293 293 294 293 293 294 294 293 293 292 292 292 292 293 293 293 293 293
301 301 297 294 298 298 298 298 298 300 298 301 300 298 297 298 299 299 299 299 299 298 301 300 299 301 300 300 297 298 297 298 298 298 297 295 296 298 299 298 298 298 298 298 298 298 298 298 298 297 297 297 297 296 296 296 296 294 293 292 292 291 292 292 293 293 293 292 292 293 293 293 293 293 293 293 293 293 292 292 292 292 293 293 293
301 300 295 296 295 298 296 298 299 300 300 299 298 298 298 298 300 298 300 298 297 297 299 299 301 302 299 297 290 291 296 298 299 299 298 298 299 299 298 299 298 298 298 298 298 298 298 297 297 297 297 297 297 296 297 296 295 293 293 292 292 291 292 291 291 292 293 292 292 292 293 293 293 293 292 292 292 293 293 293 293 293 292 292 292
300 299 299 299 299 298 298 298 299 297 300 300 299 300 300 298 299 299 298 298 297 297 300 300 301 301 295 288 288 288 295 296 298 298 300 300 300 300 298 299 300 300 299 299 299 299 298 297 298 297 296 294 296 296 295 295 295 295 293 293 292 291 291 291 291 290 292 293 292 292 292 292 293 292 292 291 292 292 292 292 292 292 292 292 292
299 299 300 298 299 299 298 300 300 300 300 300 300 297 298 299 300 301 298 297 298 297 298 299 299 300 298 290 291 287 297 298 295 299 299 299 300 299 299 300 300 301 301 300 300 300 299 295 295 297 296 296 297 296 296 295 295 295 295 293 293 292 291 291 291 291 291 292 292 291 291 291 292 293 292 291 292 292 291 291 291 291 291 291 291
298 298 299 298 299 299 299 301 300 298 301 297 298 298 300 299 300 300 300 300 299 299 299 299 300 300 300 296 293 296 299 300 301 300 299 298 297 297 299 300 300 300 300 301 301 300 298 297 295 296 297 298 299 301 296 298 296 295 295 294 293 292 292 291 291 291 290 291 292 292 291 291 291 292 291 291 291 291 291 290 290 290 290 290 290
300 299 299 299 300 300 300 300 300 300 297 298 299 301 297 300 301 300 301 300 298 300 301 298 298 299 297 299 300 301 301 300 297 297 297 298 298 298 300 300 300 300 298 298 299 301 299 297 296 295 295 297 299 299 299 299 299 297 296 296 294 294 294 293 292 292 292 291 292 292 292 292 291 291 290 291 291 290 290 290 290 289 290 290 289
300 300 299 299 299 300 299 301 299 301 300 299 299 299 299 299 299 299 298 299 298 299 299 299 299 299 298 299 300 297 300 299 299 299 299 298 298 298 298 299 299 300 299 298 297 300 296 296 296 295 295 294 297 298 299 299 300 300 301 299 298 297 295 296 295 293 293 292 292 292 292 292 292 291 289 290 292 291 290 290 290 289 288 289 289
302 301 300 300 300 299 300 302 300 300 301 300 299 299 300 300 301 300 297 298 299 298 300 299 299 299 300 301 299 299 300 298 298 298 299 300 300 299 298 299 298 296 299 299 295 298 297 297 297 295 295 294 295 298 298 299 299 299 301 300 300 299 298 297 296 294 295 294 292 293 292 292 292 292 292 291 291 291 290 290 290 289 289 289 289
302 302 301 301 301 300 300 301 300 295 300 299 299 300 298 299 300 299 300 300 299 299 299 300 300 300 300 300 300 300 300 300 299 300 299 299 299 299 300 300 297 297 297 297 297 296 297 297 297 296 296 296 296 296 297 298 299 299 300 300 300 299 297 294 297 297 296 295 293 293 292 293 293 292 292 291 290 291 290 290 290 290 289 289 289
302 302 301 301 300 301 300 300 299 300 299 299 299 299 298 299 299 300 300 300 300 300 301 301 301 301 300 302 300 301 301 301 301 300 300 300 301 300 301 300 297 296 297 297 297 297 297 298 297 297 297 297 297 297 298 299 298 298 299 299 296 288 288 290 294 296 294 292 295 294 294 293 292 291 291 291 291 291 291 290 290 289 289 289 289
302 301 301 300 300 301 301 301 301 301 302 300 301 300 299 300 299 299 300 300 300 300 301 302 301 301 301 300 299 300 300 299 300 300 300 301 301 301 301 300 301 299 298 298 298 298 298 296 297 295 297 297 298 296 297 297 298 298 298 298 290 287 288 287 288 290 293 295 295 295 295 294 293 293 293 292 291 291 290 290 290 289 290 290 289
301 301 301 301 301 301 301 302 302 302 302 301 301 301 300 300 301 301 300 301 300 301 300 301 302 302 301 302 300 301 300 301 300 301 301 301 301 301 301 300 299 300 297 299 298 298 299 298 297 297 297 296 297 298 298 298 297 297 295 292 288 288 288 288 291 288 287 290 293 293 294 293 293 292 292 293 292 292 291 290 290 290 290 290 289
Wind_Speed
8 8 7 7 7 6 5 6 6 6 6 6 6 6 6 5 5 5 5 5 5 5 5 6 6 6 6 6 7 7 7 7 7 7 7 8 8 8 8 9 10 9 9 10 10 10 11 11 11 11 12 12 11 11 11 13 14 13 11 10 9 8 6 7 10 13 12 8 10 11 10 11 12 11 11 7 6 7 10 11 13 10 9 10 10
8 7 7 7 7 6 7 6 6 6 6 7 6 6 6 5 5 5 6 6 5 6 6 6 6 6 6 7 7 7 8 8 7 7 8 8 9 7 8 9 10 10 10 10 10 9 9 11 12 12 12 13 13 13 12 12 12 13 13 11 7 9 8 8 8 10 14 11 10 11 10 9 13 12 11 7 5 5 9 12 11 7 9 10 10
8 7 7 7 7 7 7 7 7 7 7 6 7 7 6 6 6 6 6 6 6 6 7 6 6 7 7 7 7 7 8 8 8 8 8 9 9 9 9 10 10 10 10 10 11 11 11 11 11 10 9 11 11 10 12 12 11 13 14 12 11 8 8 10 9 9 13 12 11 12 12 10 8 11 13 9 4 5 10 11 12 7 7 12 13
8 7 7 7 8 8 8 7 7 8 7 7 7 7 6 6 6 6 6 6 6 6 6 6 7 7 7 7 8 8 9 9 9 9 9 9 9 9 9 9 9 10 10 10 10 10 10 10 10 11 11 11 11 11 11 11 11 12 13 12 12 13 10 5 8 9 10 13 10 10 9 7 12 13 8 5 5 6 7 10 10 11 12 12 13
9 8 8 8 8 8 9 8 8 8 7 7 7 7 7 7 6 7 7 7 7 6 6 7 7 7 7 8 9 9 10 10 10 10 10 9 9 9 9 9 9 10 9 9 9 9 10 10 10 10 11 11 11 11 11 14 12 11 11 11 12 12 11 11 9 9 11 13 13 10 7 6 11 12 12 10 4 3 7 9 10 10 10 10 12
9 9 8 8 8 8 8 9 8 8 7 7 7 7 7 7 7 7 7 7 7 7 7 7 7 7 8 9 9 9 9 10 10 11 10 10 9 9 9 9 9 9 9 9 9 8 9 9 10 10 10 11 11 11 12 13 12 11 13 12 12 12 13 13 12 9 9 11 12 12 10 10 12 9 9 6 5 6 6 10 9 9 9 7 9
8 9 8 8 8 8 8 8 8 8 7 7 6 7 7 7 8 8 7 7 7 7 7 7 7 8 8 9 9 9 10 10 11 12 11 10 9 10 9 9 9 8 9 10 10 9 9 9 9 10 11 12 13 13 13 13 10 12 12 12 12 12 12 12 12 13 12 12 12 11 12 11 8 10 11 5 5 7 10 9 7 8 7 10 9
8 8 9 8 8 8 8 8 8 8 7 7 7 7 7 8 8 7 7 8 8 8 8 8 8 8 8 8 9 9 10 10 11 12 11 11 9 9 9 9 9 9 10 10 10 10 10 9 9 11 13 13 13 14 13 11 10 10 10 10 11 11 11 11 12 12 12 12 12 12 12 11 10 10 11 9 8 7 8 10 8 7 7 9 10
10 10 9 8 8 8 8 8 8 8 8 8 8 8 8 8 8 7 7 7 7 7 7 8 8 9 9 9 9 10 9 10 9 9 9 11 10 9 9 10 10 10 10 11 11 10 10 10 9 11 12 13 10 8 11 10 8 10 11 11 11 11 10 10 10 11 11 11 11 11 12 12 12 12 11 11 10 12 9 6 8 8 7 9 10
10 10 9 8 8 9 8 8 8 8 8 8 8 8 8 8 7 8 8 8 8 8 8 8 8 9 9 10 9 9 9 8 11 16 12 8 9 8 8 9 10 10 11 11 11 11 11 11 10 14 12 15 14 15 16 18 17 12 10 9 10 10 10 11 10 10 10 10 10 11 12 11 12 13 13 12 11 12 15 11 8 6 6 8 8
10 11 9 9 9 9 8 8 8 8 8 8 8 8 8 7 7 8 8 8 8 8 8 8 8 8 10 10 10 9 8 8 15 14 16 15 9 8 8 9 10 10 11 12 12 13 13 13 12 14 15 16 17 18 18 19 20 19 12 4 5 5 7 10 10 10 10 10 10 10 11 12 13 13 13 14 13 12 11 11 13 9 7 8 9
9 10 9 9 10 9 9 9 9 9 8 8 8 8 8 7 7 7 8 8 8 8 8 8 8 8 8 10 10 9 7 12 15 16 16 17 14 9 7 8 8 9 10 11 11 12 13 13 12 11 12 17 16 17 18 19 19 20 8 7 4 1 3 7 9 11 11 10 10 10 11 11 12 12 12 13 14 15 14 12 10 12 11 9 8
11 10 9 8 10 8 9 9 9 8 8 8 7 7 7 7 7 7 8 8 8 8 8 8 8 7 8 9 10 10 9 14 15 16 16 16 16 12 7 8 9 10 10 11 12 13 13 13 12 12 12 18 16 17 17 17 19 20 9 9 7 7 3 5 3 3 9 11 10 11 10 11 12 11 13 13 13 13 13 12 12 12 12 11 9
10 10 9 9 9 9 8 9 8 8 8 8 8 7 7 7 7 6 7 7 7 8 8 8 8 7 7 8 9 9 11 13 15 17 16 17 16 11 7 9 9 10 11 11 11 13 14 14 13 13 14 15 15 17 16 16 15 14 13 10 8 4 9 3 10 9 6 8 10 11 12 12 12 13 12 10 12 12 13 13 13 13 13 12 11
10 10 10 9 9 9 9 9 8 9 8 8 7 8 7 7 6 7 7 7 7 7 7 8 7 7 7 8 8 9 9 18 16 17 16 17 18 10 8 7 8 9 9 10 11 11 14 13 13 13 14 14 14 16 16 15 14 12 14 13 11 12 9 8 12 12 10 8 9 10 11 12 12 11 10 9 10 11 12 14 15 15 14 14 13
11 10 9 8 9 9 9 9 9 9 9 8 8 8 8 8 8 7 7 8 8 7 8 8 8 8 9 9 9 10 10 16 17 17 18 18 18 4 8 7 8 8 9 10 10 10 12 13 13 13 14 15 17 21 18 16 12 14 13 12 12 12 10 10 10 10 7 7 7 8 9 9 9 10 10 8 8 9 11 11 11 9 11 11 11
10 9 8 9 10 9 9 9 9 9 9 9 8 8 8 7 7 7 7 6 7 7 7 7 7 8 9 9 9 10 10 14 16 16 17 20 14 7 7 8 8 8 9 10 10 9 9 13 13 12 13 14 17 20 20 18 12 15 13 13 12 11 11 11 11 15 14 8 7 9 10 11 12 14 12 10 10 11 10 10 11 11 11 11 9
10 10 10 10 10 9 9 9 10 9 9 8 8 8 7 7 7 6 6 6 7 8 8 8 9 9 9 9 9 10 11 14 17 17 17 18 16 7 8 9 8 9 8 9 9 9 9 15 15 13 14 14 17 18 19 16 14 15 15 15 14 14 13 12 11 12 14 14 13 14 11 12 13 14 14 14 15 14 10 11 12 10 11 9 11
10 10 11 10 10 9 9 9 9 9 9 9 8 8 8 7 6 6 6 6 7 6 7 7 8 8 9 9 10 10 11 12 16 16 18 19 16 8 8 7 8 8 8 8 8 8 9 11 12 12 11 13 17 17 19 16 12 15 14 14 14 14 13 14 14 15 14 14 12 13 13 15 14 13 14 15 15 14 11 10 10 10 11 10 10
10 11 10 10 9 8 8 9 9 8 8 8 8 7 6 6 6 5 6 6 7 7 6 7 7 7 8 10 10 9 9 11 12 15 17 17 20 11 8 8 9 9 8 8 8 8 9 9 9 13 15 15 15 16 16 17 12 14 12 11 11 12 11 11 11 11 11 12 12 13 13 13 13 13 13 14 14 14 11 9 10 10 11 10 10
11 11 10 10 9 9 8 8 8 8 8 8 7 6 6 6 6 6 7 6 6 6 6 6 7 7 7 8 9 10 9 9 10 14 13 15 16 15 8 10 10 8 8 9 8 9 8 9 9 13 17 16 16 15 14 14 12 11 12 11 10 13 11 9 10 12 11 12 11 13 12 12 12 12 13 13 13 13 12 11 11 9 10 10 9
11 11 10 10 11 10 9 9 8 7 7 6 6 6 6 6 6 7 6 6 6 6 6 6 6 6 6 7 7 8 10 10 9 10 11 12 13 15 10 10 12 9 8 8 9 8 9 9 10 13 17 17 16 15 12 12 13 9 8 8 11 14 12 12 12 12 12 12 12 12 13 13 13 13 13 13 13 14 13 13 11 10 8 8 9
12 12 12 12 11 10 10 10 7 6 7 7 8 8 7 7 7 7 7 7 7 7 6 6 6 6 6 6 6 6 6 8 8 8 8 8 9 11 12 10 14 9 8 8 8 8 8 9 10 15 16 16 15 14 12 13 10 9 12 11 8 12 12 9 9 12 13 13 12 12 12 12 13 14 14 13 13 13 12 11 12 12 11 11 11
12 12 11 11 11 10 10 9 7 7 7 7 7 7 6 6 5 5 5 5 5 5 5 5 6 6 7 6 6 6 6 5 7 5 4 3 4 5 7 10 12 9 7 7 7 8 9 9 10 16 15 15 14 10 10 16 11 12 13 10 9 12 13 12 9 9 11 12 13 12 11 10 11 13 13 13 13 13 12 10 11 11 12 12 14
12 12 12 11 10 10 9 8 8 8 7 7 7 7 6 6 6 5 5 5 5 5 5 5 6 6 6 7 7 7 6 7 5 4 3 1 2 1 5 6 7 10 7 6 6 6 6 11 12 13 13 14 13 12 10 12 16 18 16 15 15 13 13 13 12 10 8 10 11 12 12 11 11 11 13 14 14 14 12 11 11 11 11 11 15
12 12 11 10 10 10 9 9 8 7 7 6 6 5 6 5 6 5 5 5 5 5 5 6 6 6 6 6 7 7 7 7 8 8 2 4 5 6 4 8 9 9 8 9 10 9 13 12 11 10 13 11 10 11 11 10 11 14 14 15 14 15 13 13 14 13 12 10 10 10 10 10 10 11 13 13 14 14 13 12 11 11 12 12 13
12 12 11 10 10 10 9 8 7 6 7 6 6 5 5 5 5 5 5 6 6 5 6 6 6 6 6 6 6 6 7 8 8 8 9 9 9 6 6 5 6 8 7 6 9 6 5 8 8 9 6 12 11 8 11 11 11 13 12 13 12 13 14 14 13 14 13 14 12 11 9 9 9 11 13 15 14 14 14 12 12 11 11 11 14
12 12 12 10 9 9 9 6 6 7 7 7 7 6 6 7 7 8 8 8 6 6 6 7 7 6 5 5 6 6 6 7 8 8 8 9 9 9 8 8 8 8 8 9 11 9 7 7 8 9 9 10 10 10 10 11 11 11 12 12 12 12 12 13 15 13 14 13 12 10 9 10 11 11 11 12 12 13 13 12 11 11 12 12 14
12 12 10 9 10 9 7 7 7 7 8 9 10 10 8 7 9 10 10 8 7 7 7 7 7 7 6 6 5 5 6 7 6 5 6 7 6 7 8 8 8 8 10 13 11 8 7 8 8 9 9 10 10 11 11 11 11 11 13 12 12 13 12 12 13 15 13 13 13 12 11 10 10 10 9 9 10 12 11 11 13 12 11 13 15
11 10 10 9 9 8 8 8 8 8 9 9 10 10 14 16 12 8 8 9 11 13 11 7 5 6 7 8 7 7 6 5 5 8 9 9 9 9 9 10 11 10 12 15 12 5 7 6 7 8 9 9 9 9 9 11 11 11 11 11 12 12 11 13 12 12 11 12 13 13 10 9 11 11 10 10 10 10 12 12 12 11 12 12 13
9 9 9 8 8 9 8 9 9 9 9 9 9 10 9 9 12 12 9 8 10 11 10 9 13 13 8 5 6 7 7 4 5 6 8 9 10 11 12 12 14 14 17 10 6 5 5 6 5 6 8 9 7 8 8 9 8 8 10 11 11 10 9 12 12 11 11 10 9 10 11 11 11 10 10 9 11 13 12 13 13 13 13 11 11
9 9 8 9 8 8 8 9 10 10 9 9 9 9 9 9 8 8 8 8 8 9 10 11 10 10 11 9 5 4 5 4 6 6 7 9 10 11 12 14 15 16 15 14 3 5 5 5 5 5 8 8 6 9 9 10 9 10 10 8 9 11 11 11 11 12 10 11 10 9 10 10 10 9 10 9 8 11 13 11 14 12 12 11 10
9 9 10 9 8 9 9 9 9 9 9 9 9 9 9 9 9 8 5 3 4 5 8 7 7 8 8 8 8 5 3 5 6 6 7 8 10 11 12 14 15 17 15 7 4 5 5 7 8 8 7 7 9 9 9 9 9 9 10 9 9 11 12 12 11 11 10 10 9 10 9 9 8 7 7 7 7 6 8 10 13 11 9 8 7
10 9 9 9 9 9 8 8 8 8 8 8 8 8 8 8 8 9 9 7 5 2 3 3 5 4 3 3 1 2 4 5 5 7 8 9 11 12 10 10 16 18 11 6 4 4 7 7 7 8 8 8 8 8 8 9 9 9 9 10 10 10 11 12 11 10 8 8 9 8 9 9 8 9 9 9 8 8 7 7 10 7 6 6 7
9 8 5 8 9 9 8 8 7 7 6 6 7 7 8 8 8 7 7 7 7 7 6 5 6 7 2 4 4 4 4 6 7 8 8 11 12 12 12 8 2 2 1 3 6 6 7 7 7 7 7 8 8 8 8 9 8 9 9 9 9 9 10 9 10 11 9 8 9 9 8 9 10 8 9 9 9 9 9 9 10 11 10 7 6
10 10 8 7 9 8 8 7 7 7 7 7 6 6 5 5 5 4 4 4 5 6 6 6 6 4 6 5 6 6 7 8 8 9 10 10 13 10 4 3 3 4 5 6 6 6 6 7 7 7 7 7 7 7 8 8 8 8 9 9 7 8 7 7 8 8 7 7 7 7 8 7 8 8 8 9 10 8 9 9 9 8 8 9 7
10 9 8 8 8 8 7 8 7 6 7 7 6 6 6 5 5 5 4 4 3 3 4 6 6 6 5 6 8 8 10 8 9 9 10 12 15 11 4 5 4 5 5 5 6 5 6 6 7 6 7 7 7 7 7 7 8 8 8 8 8 8 7 6 7 6 7 7 7 6 6 7 6 7 8 8 8 8 8 7 7 7 6 6 8
10 9 8 9 8 8 8 7 9 8 7 6 5 5 6 5 4 4 4 3 2 1 3 3 3 6 7 7 11 7 7 10 8 7 11 12 8 4 4 3 4 5 5 4 5 6 5 5 5 6 6 6 7 7 7 7 7 7 8 8 5 5 8 5 6 7 6 6 7 7 7 6 6 6 6 7 7 7 7 7 6 6 7 7 8
7 9 10 8 8 7 7 8 9 7 6 6 6 5 5 5 5 5 5 5 4 1 1 2 1 1 2 2 1 4 8 7 4 2 1 3 3 4 3 4 4 4 5 5 5 5 5 5 5 6 6 6 6 6 6 6 7 5 6 5 5 4 5 6 6 6 6 7 6 6 7 6 6 6 6 6 6 5 6 6 6 6 6 6 6
10 9 6 2 7 7 9 9 7 6 6 5 6 6 5 4 3 3 2 2 1 1 3 1 2 1 3 3 4 4 5 5 2 1 0 2 2 4 4 3 4 4 4 4 4 5 5 4 5 5 6 6 6 6 6 6 6 4 4 5 5 5 4 5 5 6 5 6 6 6 6 6 6 5 5 6 5 5 5 4 5 5 5 5 5
10 10 8 6 9 9 8 7 6 6 5 5 6 6 5 3 3 2 2 2 2 3 3 2 2 1 5 6 5 1 4 6 5 4 2 1 3 3 3 3 2 3 3 3 3 4 4 5 5 5 5 5 6 6 6 6 4 3 4 4 4 5 5 4 4 5 5 4 5 6 6 5 5 5 5 5 6 6 5 4 4 4 4 4 4
10 10 8 8 9 8 8 7 6 6 5 5 6 5 5 3 3 5 2 2 0 2 2 2 3 2 9 12 9 8 4 5 6 4 4 3 3 2 2 3 2 2 3 3 3 3 3 4 4 3 3 3 3 3 3 3 4 4 3 3 4 4 4 4 4 4 5 4 4 4 5 5 4 4 4 6 4 4 4 5 4 4 4 3 3
11 9 8 9 8 8 7 6 6 6 5 5 4 1 1 4 4 3 3 4 3 3 3 3 3 2 8 9 10 8 5 5 6 6 5 4 4 2 3 3 3 2 2 2 2 2 3 1 2 2 2 3 3 2 3 3 3 4 3 4 3 3 4 4 4 4 4 4 4 4 4 4 5 3 4 4 4 3 4 4 4 4 3 3 4
10 9 8 9 7 7 7 5 6 7 4 5 3 5 5 5 4 3 4 5 6 5 5 5 4 4 3 7 6 6 5 6 5 3 3 3 4 3 4 3 3 2 3 3 3 2 2 1 2 2 3 4 4 3 3 2 2 3 3 3 3 3 3 3 4 4 4 4 6 4 3 3 4 4 4 3 3 4 3 4 3 3 3 3 3
9 9 9 8 6 6 7 6 6 6 5 5 5 4 4 4 4 4 4 4 5 5 5 5 4 4 5 5 6 8 6 4 3 3 5 4 4 4 5 4 3 3 3 2 3 3 2 2 2 3 2 3 5 5 5 4 3 2 2 3 3 3 3 3 3 3 3 4 5 5 4 3 3 3 4 4 3 3 3 4 3 5 3 3 3
9 9 9 8 7 7 7 6 5 6 6 6 5 6 7 6 6 6 5 5 4 4 5 4 4 5 4 5 5 5 5 5 5 4 3 4 4 3 4 4 3 3 2 3 3 3 2 3 3 3 4 3 3 5 5 5 6 5 4 4 3 1 2 2 1 2 3 3 4 4 4 4 4 2 1 3 4 3 3 3 2 3 3 4 2
8 8 8 8 7 6 6 6 7 6 6 6 6 6 6 6 6 6 6 4 4 4 4 5 6 6 5 5 5 5 5 6 6 4 6 5 4 4 5 4 3 3 3 3 3 4 4 4 4 4 4 4 4 6 6 6 6 6 5 5 3 3 3 1 1 3 3 3 2 3 4 5 5 4 1 3 4 4 4 3 3 2 2 2 3
8 7 8 6 6 7 7 5 6 6 6 6 6 6 6 5 5 5 6 5 7 7 7 7 6 6 6 5 5 5 5 5 6 6 6 6 6 5 4 3 2 3 3 4 4 4 4 4 4 4 4 4 5 5 6 7 7 7 7 6 6 2 5 3 2 5 3 3 3 4 4 4 4 4 3 3 3 4 4 3 4 4 3 3 3
7 6 6 7 6 6 6 7 6 6 7 6 5 5 6 5 6 6 5 6 6 6 6 6 6 6 6 6 5 5 5 5 5 6 6 6 5 5 5 5 4 3 4 4 4 4 4 4 5 5 5 5 4 5 5 8 8 8 8 8 2 10 8 6 2 2 3 2 4 4 4 4 4 4 3 4 3 3 3 4 4 3 4 4 3
7 7 6 6 6 5 5 5 6 6 6 6 6 6 7 7 7 7 7 7 6 6 6 6 6 6 6 6 7 6 6 6 6 7 7 7 7 7 6 6 5 3 4 4 4 4 4 5 5 5 5 5 5 5 5 6 8 6 6 4 5 8 7 8 7 4 2 4 4 4 5 5 5 5 5 5 5 4 4 4 4 3 4 4 4
6 6 5 5 5 6 5 5 5 5 5 5 6 6 6 6 6 6 7 7 7 7 7 7 7 6 7 6 6 7 7 7 7 7 7 7 7 7 7 5 5 5 5 5 5 5 5 5 5 5 5 5 5 6 6 6 6 6 8 6 6 7 7 7 4 7 7 5 4 4 5 5 5 5 5 5 5 5 4 5 4 4 5 5 5
Wind_Direction
106 104 107 103 97 92 85 83 82 79 81 87 85 76 74 73 71 73 68 55 48 47 41 33 26 23 24 23 14 12 7 7 4 356 353 352 348 344 341 341 339 340 337 333 333 331 329 322 317 312 311 310 314 315 315 315 310 301 298 296 298 287 271 287 280 287 288 283 284 287 287 277 270 268 257 229 202 184 219 232 232 219 203 204 198
102 105 103 101 101 96 83 77 76 81 79 76 78 76 68 67 69 69 67 59 48 47 44 38 28 27 24 18 17 15 10 11 6 360 356 352 349 345 343 342 341 338 336 332 334 334 328 326 328 329 332 332 331 325 324 318 313 314 312 309 299 290 273 250 260 269 282 290 282 287 283 281 287 277 275 244 195 186 216 225 226 208 205 206 201
105 103 103 106 101 89 90 93 94 85 81 78 77 75 72 64 66 66 65 63 55 48 44 37 32 29 26 25 22 19 17 15 10 5 2 355 352 351 348 345 342 339 337 337 336 334 331 331 329 332 331 325 323 320 317 318 325 319 316 315 306 287 274 274 282 276 284 289 296 298 293 293 286 292 284 291 269 240 216 222 222 215 207 206 210
107 105 103 100 105 106 101 97 89 86 83 79 80 81 75 70 68 70 67 64 63 60 50 43 42 36 35 34 30 23 20 18 7 3 359 355 355 353 349 348 347 344 342 341 339 338 339 337 339 338 337 334 336 336 333 333 325 322 319 318 319 320 312 296 274 279 279 288 288 282 288 305 293 275 275 227 261 282 227 227 224 216 211 208 211
115 115 116 115 110 108 105 98 92 85 83 82 82 81 80 76 68 68 68 64 58 55 53 45 45 44 41 33 31 22 20 12 6 2 356 352 352 352 351 350 350 351 353 351 349 345 342 344 345 347 349 346 345 339 334 330 326 321 320 320 319 317 317 314 303 303 297 292 294 293 288 265 268 283 286 278 244 216 255 245 221 215 217 207 214
117 119 121 116 113 106 101 95 88 87 87 84 79 79 81 79 76 70 65 67 64 59 61 54 46 49 42 39 28 21 17 14 7 0 354 350 345 350 356 357 355 359 357 352 346 342 343 347 351 353 353 353 342 335 333 329 327 327 326 324 325 322 319 315 313 304 298 299 303 307 300 292 292 277 271 254 273 281 259 251 228 213 213 203 206
108 120 121 116 111 101 93 91 94 90 85 84 85 81 76 76 74 71 69 69 67 67 65 62 55 47 44 40 32 23 19 15 9 2 357 354 346 343 1 0 354 358 349 348 349 347 351 358 357 4 355 350 345 339 335 332 330 326 322 326 329 328 325 322 319 316 312 309 304 299 300 298 293 290 288 275 237 232 260 267 238 225 215 210 208
118 122 120 116 111 104 102 98 92 90 90 86 83 83 82 79 77 74 73 68 66 64 60 58 57 52 44 40 32 26 20 17 12 5 360 355 348 341 6 1 356 0 355 352 354 353 354 356 358 357 356 356 349 344 339 331 320 319 321 330 334 334 333 331 327 322 318 316 315 316 315 310 304 292 294 298 294 281 257 260 262 245 225 220 212
129 124 119 117 112 109 105 101 99 98 94 93 88 82 80 79 79 79 74 73 68 62 60 57 57 52 45 39 32 27 25 17 11 350 345 344 340 341 8 4 6 4 1 4 6 2 357 358 1 5 2 360 341 334 323 312 316 321 322 330 337 339 339 337 337 332 328 321 315 318 317 313 312 321 328 326 318 305 289 242 260 257 245 229 221
131 130 126 122 119 112 107 105 103 100 99 95 93 92 86 80 80 76 73 69 66 63 60 54 54 53 46 39 34 30 26 23 349 336 333 333 330 332 11 14 13 13 11 7 11 7 3 2 2 9 5 0 354 354 342 331 319 311 304 310 336 344 345 343 343 338 330 328 327 326 317 316 323 327 328 331 340 340 332 307 272 257 254 241 235
157 118 126 124 120 114 109 107 105 101 102 99 94 90 85 83 80 77 74 71 67 64 61 64 57 50 49 43 36 33 33 8 345 340 338 338 337 335 21 20 22 16 16 15 10 5 1 357 357 358 360 358 355 353 344 335 326 320 322 293 352 1 358 357 350 343 338 329 326 323 325 324 330 337 331 333 335 334 321 318 313 296 261 259 247
120 128 129 133 119 114 113 109 106 103 102 100 97 91 90 88 83 80 78 74 68 63 65 60 59 56 50 48 39 32 31 5 351 348 345 344 342 331 22 27 27 17 18 17 13 9 3 357 356 352 357 358 354 351 342 334 326 318 343 172 147 49 16 37 3 347 343 331 328 330 328 331 329 332 334 333 330 324 321 316 306 300 284 256 250
133 135 129 121 110 114 114 110 108 108 103 98 93 93 91 87 84 83 80 79 75 69 65 61 59 55 54 53 44 33 27 1 353 352 348 347 341 334 32 29 27 25 18 16 13 11 5 356 355 352 353 354 357 351 341 335 329 315 336 168 202 198 186 147 139 345 336 333 328 326 331 329 326 329 330 324 321 313 318 312 309 307 301 284 257
126 126 126 123 121 115 110 110 109 108 107 101 99 98 97 94 96 93 92 85 84 80 68 66 62 58 51 50 49 36 24 358 354 357 350 347 343 328 43 29 31 23 19 17 12 12 7 359 357 356 355 358 359 350 342 335 328 326 345 350 348 196 200 28 15 351 335 332 332 327 328 329 323 323 320 320 319 321 315 304 304 300 296 291 295
119 119 121 129 120 115 115 111 109 105 101 99 99 95 91 97 92 83 80 80 79 74 76 72 70 66 59 51 48 38 22 4 360 359 354 348 343 319 44 32 30 23 19 13 16 19 10 4 360 359 358 2 358 343 340 334 323 340 346 347 345 346 354 16 1 353 338 334 344 340 333 332 324 313 305 307 315 315 310 293 287 283 281 280 280
117 118 120 115 115 119 117 116 112 111 109 108 105 100 97 91 93 94 86 75 70 69 65 64 68 68 62 56 52 43 30 12 0 0 356 352 337 4 40 38 24 28 20 18 21 23 17 12 5 6 2 5 353 341 337 331 334 356 348 347 345 343 348 355 348 336 308 296 337 342 332 316 300 298 295 293 299 307 306 298 285 277 277 274 268
114 118 122 117 116 116 116 115 113 111 108 108 106 106 106 103 91 83 90 92 89 82 82 74 63 58 54 56 56 47 33 16 6 3 360 357 347 17 47 41 31 27 32 23 23 31 43 25 19 11 7 6 348 339 341 334 353 0 356 353 352 346 347 343 342 341 333 320 263 314 331 334 333 329 337 324 328 322 322 328 337 335 320 312 293
118 116 111 108 114 117 117 117 116 113 111 108 107 108 107 98 97 98 94 98 95 93 90 83 74 66 58 53 49 53 39 22 12 6 7 1 349 1 47 44 35 31 34 32 25 24 65 55 22 17 9 2 342 340 347 344 5 7 2 0 359 357 352 348 350 345 343 346 356 358 341 351 345 348 350 350 343 340 345 342 333 326 317 311 312
116 115 113 112 113 114 112 110 109 111 112 112 111 109 103 104 117 114 104 98 95 97 93 89 86 76 67 60 43 51 48 33 16 10 10 8 1 3 43 48 37 35 27 28 30 25 17 54 35 3 354 341 337 342 348 355 356 18 6 6 4 2 357 347 359 351 352 352 353 354 359 357 355 352 351 347 349 348 348 338 330 332 323 315 310
101 102 103 102 101 101 104 107 110 114 111 106 102 101 105 106 100 102 103 99 98 96 92 89 91 87 78 64 54 45 51 48 28 15 15 12 8 2 40 19 24 31 27 22 25 23 29 23 28 3 346 338 333 334 338 351 356 14 8 6 353 343 329 352 359 351 352 352 348 357 358 355 355 357 355 354 354 353 343 346 346 337 329 319 313
101 101 108 111 110 106 101 106 112 110 106 104 109 111 107 106 99 94 92 91 96 97 98 97 90 89 85 81 72 59 47 48 49 27 19 16 13 4 28 24 359 14 24 22 21 21 18 19 18 354 340 333 332 327 328 336 336 13 9 8 346 340 322 2 1 1 4 359 357 357 358 358 359 360 357 357 358 352 350 353 354 346 338 337 325
123 126 127 122 119 119 116 108 103 108 115 118 117 110 113 111 110 104 101 103 98 92 91 89 88 84 87 85 87 85 70 56 46 46 26 19 13 11 15 12 351 342 25 24 19 24 15 13 10 341 330 327 325 325 320 331 323 8 353 325 333 2 7 11 4 10 8 7 6 4 3 2 2 2 1 0 358 354 351 354 353 352 344 346 347
135 131 124 119 118 115 115 118 119 118 118 118 116 115 112 108 107 110 113 110 104 102 95 95 88 79 76 67 69 78 89 83 65 57 47 29 19 3 0 354 340 342 26 25 24 15 14 2 352 332 323 318 322 320 340 352 336 341 327 338 11 15 20 23 20 14 10 11 10 11 9 7 5 3 1 360 358 355 349 348 355 360 1 3 16
124 121 120 119 119 118 121 123 122 119 118 116 112 109 106 106 109 108 114 107 104 100 97 89 80 77 70 66 59 51 46 83 107 92 98 64 26 9 339 347 338 338 349 31 16 15 2 351 328 312 315 314 319 317 6 359 355 328 318 328 31 37 26 21 27 26 18 13 15 15 18 15 11 7 3 1 360 360 352 350 1 7 14 22 29
126 124 123 123 127 126 122 118 116 118 119 117 112 108 108 110 106 103 90 86 92 96 89 78 79 75 70 65 56 46 40 34 40 141 193 135 157 185 272 286 314 315 323 22 358 351 314 303 305 309 321 334 326 355 14 12 357 353 349 358 29 31 24 27 24 25 22 18 15 20 21 20 16 9 4 5 6 7 3 2 6 18 19 33 42
125 124 125 128 128 128 124 118 112 106 103 99 95 94 98 101 99 91 88 88 89 81 70 77 72 67 69 62 59 52 41 35 27 21 9 235 216 202 249 273 297 296 266 272 287 284 277 296 316 325 352 342 351 13 10 6 10 1 7 5 26 29 33 23 24 23 24 28 21 24 27 21 20 16 13 11 14 15 10 9 8 17 24 30 45
126 129 129 127 123 120 121 118 118 113 102 94 90 89 81 81 69 74 89 93 84 62 67 64 61 69 66 65 61 59 48 40 27 25 17 7 4 9 9 344 342 355 5 7 340 317 322 348 340 307 339 341 346 359 13 6 17 16 17 23 19 23 26 32 25 25 24 26 28 30 30 31 26 27 24 21 19 18 14 14 20 15 24 36 51
132 130 127 126 126 120 113 133 129 110 95 79 77 85 88 73 59 49 30 18 27 75 78 58 52 41 48 56 64 53 56 47 34 19 14 5 357 3 11 8 2 9 3 348 332 327 354 349 6 7 14 8 9 13 16 15 17 23 17 20 23 18 19 25 32 29 27 28 29 32 33 29 32 30 31 29 27 21 16 20 19 24 25 36 47
130 130 129 124 117 128 133 120 105 102 95 83 64 42 34 64 86 72 45 36 30 18 43 60 41 53 42 29 33 67 52 45 32 5 329 331 318 341 2 0 357 345 342 326 319 325 10 2 12 11 14 15 10 12 14 14 18 19 22 15 23 19 19 23 25 27 24 25 28 26 33 37 33 30 32 36 33 31 19 26 27 35 35 45 49
134 132 130 129 135 132 121 116 114 112 110 105 92 73 52 48 36 58 73 53 51 44 47 54 11 21 74 53 33 35 44 39 359 339 332 321 321 317 319 317 324 320 315 320 303 334 8 15 9 15 12 19 12 12 13 15 14 16 20 17 19 21 20 20 25 23 20 21 24 25 26 37 39 33 33 35 41 40 37 35 33 31 42 40 47
134 131 135 138 133 128 129 127 122 114 113 112 108 106 101 72 60 52 55 51 48 54 63 54 42 34 27 91 88 69 74 30 342 326 323 328 329 320 319 322 315 316 314 334 323 13 3 15 11 17 16 19 16 10 12 18 13 17 16 18 19 18 19 23 20 20 17 21 18 26 25 32 42 39 37 37 38 42 43 44 44 44 46 44 50
138 139 131 127 137 141 127 124 127 126 125 122 118 118 111 104 86 57 43 40 44 56 56 54 48 45 42 34 43 131 128 85 360 333 335 325 316 317 315 319 314 308 307 309 322 15 7 15 10 22 16 15 20 12 13 15 15 18 16 15 19 18 16 19 17 20 19 20 21 20 28 27 36 46 44 43 46 48 48 47 48 45 50 51 52
134 127 131 145 137 126 133 135 134 133 130 128 129 127 118 113 109 108 100 74 39 65 74 66 63 59 48 45 41 43 4 322 319 319 320 312 310 309 314 306 302 299 309 316 25 5 13 12 14 13 18 15 16 14 12 16 15 15 18 16 19 18 17 8 11 22 21 17 22 22 19 29 29 42 46 44 47 56 56 57 55 56 50 49 50
132 139 146 141 142 143 140 140 138 138 139 139 133 129 123 122 124 127 128 128 132 141 141 130 118 108 100 89 79 289 265 289 303 311 304 299 300 298 298 295 286 281 271 281 9 16 14 8 18 12 14 14 15 12 10 14 20 10 16 20 15 18 17 10 10 13 22 19 22 24 21 24 25 37 44 42 45 48 50 55 59 67 70 71 74
137 99 120 153 141 142 142 139 143 138 134 131 132 129 128 138 150 158 150 151 141 135 128 149 196 218 177 176 178 227 275 277 280 281 291 290 288 290 299 285 315 316 278 12 19 14 19 6 15 14 13 11 14 11 10 11 14 17 8 21 15 14 16 16 8 5 16 21 21 21 26 27 25 30 31 44 47 43 44 47 49 54 60 66 77
135 148 156 158 144 138 138 139 126 128 137 141 134 124 134 147 148 117 110 123 134 138 142 136 134 175 186 161 183 217 244 257 267 275 272 283 286 302 313 5 356 13 14 15 13 16 19 15 5 16 12 13 6 13 12 10 9 16 7 13 18 13 10 19 9 5 8 21 23 19 19 32 34 28 33 32 36 51 56 45 45 52 56 63 62
148 153 159 148 140 139 135 133 141 125 117 118 129 138 141 134 136 152 156 140 142 167 165 151 153 159 215 203 203 225 230 253 253 259 276 283 293 298 322 9 357 3 11 20 4 7 16 18 12 8 13 12 8 8 13 9 13 11 6 7 17 17 359 15 12 8 4 18 20 19 26 26 29 40 36 37 37 30 37 57 57 43 36 46 64
151 158 153 142 140 137 138 117 94 94 139 153 133 133 148 151 147 130 115 118 104 166 126 106 211 192 190 187 195 205 206 223 247 281 265 260 262 274 353 9 4 6 357 15 10 355 13 14 15 12 4 13 8 7 12 9 14 8 5 2 6 25 344 359 18 10 4 9 20 17 16 27 28 26 36 44 39 40 38 32 37 53 58 50 57
136 75 89 123 143 141 128 130 145 158 153 153 144 139 128 134 149 142 148 152 190 205 299 192 176 84 28 23 192 200 207 208 213 245 10 359 339 337 356 0 1 20 352 4 359 2 357 13 9 18 7 5 9 6 11 8 12 8 6 2 359 4 11 9 7 8 15 11 11 17 18 16 23 28 25 30 39 42 45 38 38 43 49 55 67
132 138 122 149 147 125 131 145 162 158 156 147 136 142 153 173 149 147 187 152 145 240 236 170 223 141 87 63 22 340 332 326 314 297 343 353 335 335 336 5 353 10 351 5 349 3 350 6 7 10 11 5 5 4 6 6 1 10 6 3 4 359 6 18 4 3 8 16 8 7 13 14 22 20 24 27 24 30 32 49 53 44 42 60 63
143 138 152 171 121 137 146 161 167 156 159 150 143 165 167 178 162 185 166 162 185 202 221 241 298 219 115 108 114 43 306 302 303 303 302 299 311 306 333 335 346 351 338 2 355 1 354 0 353 5 11 3 356 357 356 3 351 356 10 6 8 1 355 14 13 359 349 15 17 4 2 5 15 23 18 18 27 21 24 28 39 47 55 46 39
140 146 158 143 144 159 158 182 156 153 165 151 169 182 146 195 181 215 167 240 195 299 297 263 267 124 131 154 161 188 254 287 284 301 294 277 284 309 324 297 310 335 331 346 350 348 345 355 338 349 1 347 352 349 342 356 351 343 359 1 11 0 355 359 7 359 342 357 14 8 358 352 357 23 18 8 21 27 24 13 22 34 28 41 67
145 155 149 151 169 160 170 174 156 170 171 172 195 184 137 194 195 200 192 228 269 277 297 286 274 223 150 174 173 184 234 255 251 255 260 261 258 280 286 274 270 280 275 316 301 340 324 343 331 335 348 329 333 353 333 343 347 336 350 346 360 4 355 360 356 358 355 349 347 358 354 2 344 10 23 12 5 25 31 17 14 11 32 38 14
153 159 153 164 174 159 177 180 169 172 186 172 205 178 199 205 230 229 231 208 214 218 227 247 250 270 163 172 183 203 246 254 258 283 327 326 296 272 278 287 283 291 298 280 279 284 315 312 319 330 327 314 314 321 314 316 340 332 332 341 336 349 355 2 353 355 357 346 326 333 4 4 351 349 5 14 11 356 23 20 16 14 6 24 26
159 162 158 174 178 170 181 184 172 178 176 165 203 206 215 244 254 234 236 239 226 227 251 251 267 267 266 244 209 223 239 268 283 263 252 256 275 270 253 255 261 255 255 269 282 290 287 285 279 268 281 288 301 308 308 308 305 303 320 315 315 324 349 343 1 342 347 342 335 336 342 359 351 10 354 345 354 8 4 3 6 348 356 7 9
167 163 169 179 183 180 178 186 185 187 181 203 203 211 204 215 221 231 233 239 255 270 266 265 261 267 263 262 269 271 258 257 263 274 278 272 272 285 284 273 272 280 281 281 274 259 256 267 284 298 295 300 298 295 296 300 294 278 268 286 280 297 313 310 343 326 331 342 336 333 343 339 336 354 67 338 340 357 359 331 343 359 343 325 13
175 167 176 182 183 183 195 181 182 204 199 200 211 219 226 217 220 220 218 237 291 306 291 278 276 268 262 260 251 247 248 247 247 253 256 255 263 279 296 291 287 287 289 281 270 263 255 246 247 257 265 268 274 280 285 287 286 288 282 272 280 278 256 283 338 314 312 319 323 333 337 325 323 333 9 360 335 341 338 318 335 302 293 320 313
175 180 172 192 187 183 188 205 185 185 223 206 212 222 226 234 236 235 253 231 210 223 234 240 244 248 249 250 253 261 262 265 266 269 270 276 274 263 248 251 259 263 265 266 267 273 276 276 269 255 246 247 252 262 269 272 276 276 279 276 271 262 102 123 280 294 302 324 327 304 306 307 327 329 330 332 322 329 315 328 330 327 327 317 311
180 193 176 188 195 197 188 193 202 199 204 227 221 222 231 237 245 255 243 239 245 249 258 263 262 260 260 259 264 266 272 271 264 264 271 270 265 260 255 250 248 256 266 277 285 282 274 262 255 255 261 261 257 256 258 262 268 275 277 279 111 122 152 163 226 253 15 315 283 287 279 275 271 277 294 288 281 287 312 322 306 304 299 297 298
184 188 192 183 200 209 206 204 203 209 208 211 223 222 213 219 231 235 240 250 255 259 260 261 266 268 270 272 270 267 258 254 257 260 256 253 253 258 261 262 259 248 249 256 263 264 260 258 256 250 245 245 251 256 260 263 261 262 262 267 143 172 170 182 209 184 207 262 277 284 295 299 303 301 293 298 296 287 276 278 282 295 299 296 288
189 194 206 211 202 205 218 222 225 233 238 230 223 227 237 244 240 236 239 239 244 246 248 251 256 262 269 267 260 256 258 262 263 260 257 259 262 263 262 263 259 257 258 257 255 258 262 266 268 261 255 247 240 241 246 251 254 253 252 240 175 192 186 194 207 215 223 251 262 270 272 277 282 281 278 278 282 279 275 269 273 284 284 283 285